Regional Weather Roundup
Issued by NWS

Home | Current Version | Previous Version | Text Only | Print | Product List | Glossary Off
Versions: 1 2 3 4 5 6 7 8 9 10 11 12 13 14 15 16 17 18 19 20 21 22 23 24 25 26 27 28 29 30 31 32 33 34 35 36 37 38 39 40 41 42 43 44 45 46 47 48 49 50

000
ASUS43 KLMK 171902
RWRKY
KENTUCKY REGIONAL WEATHER ROUNDUP
NATIONAL WEATHER SERVICE LOUISVILLE KY
200 PM EST SAT FEB 17 2018

NOTE "FAIR" INDICATES FEW OR NO CLOUDS BELOW 12,000 FEET
WITH NO SIGNIFICANT WEATHER AND/OR OBSTRUCTIONS TO VISIBILITY.

KYZ001>023-026-027-061>063-070>075-172000-
WESTERN AND SOUTH CENTRAL KENTUCKY

CITY           SKY/WX    TMP DP  RH WIND       PRES   REMARKS
PADUCAH        CLOUDY    41  38  89 SE5       30.03F
HENDERSON      LGT RAIN  36  35  96 E6        30.03F FOG     WCI  31
OWENSBORO      LGT RAIN  36  35  96 E3        30.05F FOG
HOPKINSVILLE   DRIZZLE   41  41 100 S5        30.02S
BOWLING GREEN  LGT RAIN  40  39  97 CALM      30.04F FOG
GLASGOW        NOT AVBL
$$

KYZ024-025-028>034-038-045-046-053-172000-
NORTH CENTRAL KENTUCKY

CITY           SKY/WX    TMP DP  RH WIND       PRES   REMARKS
LOUISVILLE/SDF LGT SNOW  34  33  96 CALM      30.04F FOG
LOUISVILLE/LOU LGT SNOW  34  34 100 CALM      30.05F FOG
FORT KNOX      LGT SNOW  34  34  99 NE3       30.04F FOG
$$

KYZ035>037-039>044-047>052-055>060-089>105-172000-
NORTHEAST KENTUCKY

CITY           SKY/WX    TMP DP  RH WIND       PRES   REMARKS
LEXINGTON      RAIN      36  33  89 N6        30.02F FOG     WCI  31
COVINGTON      SNOW      33  33 100 E3        30.01F VSB 1/2
FRANKFORT      LGT SNOW  34  31  88 CALM      30.02F FOG
$$

KYZ054-064>069-076>088-106>120-172000-
SOUTHEAST KENTUCKY

CITY           SKY/WX    TMP DP  RH WIND       PRES   REMARKS
JACKSON        RAIN      37  36  96 CALM      30.02F VSB 3/4
LONDON         RAIN      40  38  93 NW6       30.09R FOG
SOMERSET       NOT AVBL
MIDDLESBORO    RAIN      44  44 100 CALM      30.03F
MONTICELLO     NOT AVBL
$$





USA.gov is the U.S. government's official web portal to all federal, state and local government web resources and services.